GW3834 Weather Reports


time (UTC)temp
F
wind
direction
speed
knots
gust
knots
rain 1hr
in
rain 24hr
in
rain mn
in
humidity
%
barometer
mb
20260503013039 62 60 0.0 1.7 0.00 0.00 0.00 43 1016.8
20260503011538 63 90 0.0 2.6 0.00 0.00 0.00 40 1017.0
20260503010037 62 63 1.7 4.3 0.00 0.00 0.00 40 1017.0
20260503004536 62 46 2.6 5.2 0.00 0.00 0.00 41 1017.2
20260503003034 63 346 1.7 6.1 0.00 0.00 0.00 40 1017.3
20260503001536 62 18 4.3 7.0 0.00 0.00 0.00 41 1017.5
20260503000033 64 290 2.6 4.3 0.00 0.00 0.00 39 1017.6
20260502234537 65 241 0.9 6.1 0.00 0.00 0.00 38 1017.6
20260502233031 64 29 1.7 6.1 0.00 0.00 0.00 40 1017.7
20260502231530 64 217 0.9 4.3 0.00 0.00 0.00 38 1017.9
20260502230030 63 101 0.9 5.2 0.00 0.00 0.00 38 1018.1
20260502224528 64 307 0.0 6.1 0.00 0.00 0.00 40 1018.2
20260502223027 64 40 1.7 8.7 0.00 0.00 0.00 40 1018.4
20260502221526 63 293 1.7 4.3 0.00 0.00 0.00 38 1018.6
20260502220031 62 48 1.7 7.0 0.00 0.00 0.00 40 1018.8
20260502214525 63 323 5.2 10.4 0.00 0.00 0.00 39 1019.1
20260502213030 62 324 5.2 0.0 0.00 0.00 0.00 40 1019.3
20260502211524 62 289 1.7 5.2 0.00 0.00 0.00 42 1019.4
20260502210024 62 250 2.6 10.4 0.00 0.00 0.00 39 1019.6
20260502204523 63 283 3.5 7.8 0.00 0.00 0.00 40 1019.6
20260502203022 62 330 2.6 9.6 0.00 0.00 0.00 41 1019.7
20260502201534 61 349 2.6 7.0 0.00 0.00 0.00 41 1019.9
20260502200023 62 8 2.6 9.6 0.00 0.00 0.00 39 1020.0
20260502194533 62 12 1.7 5.2 0.00 0.00 0.00 43 1020.1
20260502193018 61 219 0.9 7.0 0.00 0.00 0.00 42 1020.3
20260502191519 61 280 3.5 7.0 0.00 0.00 0.00 42 1020.6
20260502190014 60 33 3.5 7.8 0.00 0.00 0.00 46 1020.7
20260502184517 59 65 2.6 7.8 0.00 0.00 0.00 44 1020.7
20260502183012 58 11 2.6 11.3 0.00 0.00 0.00 47 1021.0
20260502181511 59 284 7.0 13.0 0.00 0.00 0.00 47 1020.9
20260502163002 56 309 7.0 10.4 0.00 0.00 0.00 55 1021.1
20260502161601 56 293 7.8 12.2 0.00 0.00 0.00 56 1021.1
20260502151556 53 303 8.7 13.0 0.00 0.00 0.00 58 1021.1
20260502123033 41 11 0.0 0.0 0.00 0.00 0.00 76 1020.1
20260502121532 40 11 0.0 0.9 0.00 0.00 0.00 76 1019.9
20260502114529 39 33 0.0 1.7 0.00 0.00 0.00 75 1019.7
20260502113027 40 359 0.0 0.0 0.00 0.00 0.00 75 1019.8
20260502111527 42 359 0.0 0.0 0.00 0.00 0.00 70 1019.7
20260502110024 42 359 0.0 0.9 0.00 0.00 0.00 72 1019.7
20260502104521 41 15 0.0 0.9 0.00 0.00 0.00 72 1019.6
20260502103019 41 356 0.0 1.7 0.00 0.00 0.00 73 1019.2
20260502101516 43 359 0.0 1.7 0.00 0.00 0.00 67 1019.0
20260502091507 44 283 0.0 0.9 0.00 0.00 0.00 65 1018.3
20260502070055 48 86 0.0 3.5 0.00 0.00 0.00 51 1016.5
20260502064549 47 43 1.7 3.5 0.00 0.00 0.00 55 1016.6
20260502063047 48 30 0.9 1.7 0.00 0.00 0.00 52 1016.7
20260502061543 49 64 0.9 1.7 0.00 0.00 0.00 50 1016.7
20260502060040 47 52 0.9 1.7 0.00 0.00 0.00 55 1016.8
20260502054539 46 34 0.0 1.7 0.00 0.00 0.00 56 1016.8
20260502053042 48 48 0.0 0.9 0.00 0.00 0.00 52 1016.7
20260502051539 43 23 0.9 5.2 0.00 0.00 0.00 66 1016.8
20260502050038 46 236 0.0 1.7 0.00 0.00 0.00 61 1016.7
20260502044542 46 27 0.9 2.6 0.00 0.00 0.00 55 1016.7
20260502043044 48 60 0.0 0.9 0.00 0.00 0.00 55 1016.6
20260502041545 48 63 0.0 1.7 0.00 0.00 0.00 54 1016.5
20260502040036 48 19 0.0 0.9 0.00 0.00 0.00 54 1016.4
20260502034539 49 19 0.0 1.7 0.00 0.00 0.00 53 1016.3
20260502033037 50 148 0.0 0.9 0.00 0.00 0.00 52 1016.2
20260502031535 51 151 0.0 3.5 0.00 0.00 0.00 53 1016.1
20260502030034 53 329 0.0 0.9 0.00 0.00 0.00 46 1015.9
20260502024539 53 351 0.0 0.9 0.00 0.00 0.00 54 1015.8
20260502023033 55 352 0.0 0.0 0.00 0.00 0.00 53 1015.7
20260502021533 57 326 0.0 0.0 0.00 0.00 0.00 51 1015.6
20260502020032 60 8 0.9 1.7 0.00 0.00 0.00 46 1015.5
20260502014549 62 51 0.9 2.6 0.00 0.00 0.00 42 1015.4